Regional Weather Roundup
Issued by NWS

Home | Current Version | Previous Version | Graphics & Text | Print | Product List | Glossary Off
Versions: 1 2 3 4 5 6 7 8 9 10 11 12 13 14 15 16 17 18 19 20 21 22 23 24 25 26 27 28 29 30 31 32 33 34 35 36 37 38 39 40 41 42 43 44 45 46 47 48 49 50

000
ASUS43 KTOP 230108
RWRKS

WEATHER ROUNDUP FOR KANSAS
NATIONAL WEATHER SERVICE GOODLAND KS
800 PM CDT SAT APR 22 2017

NOTE:  "FAIR" INDICATES FEW OR NO CLOUDS BELOW 12,000 FEET WITH NO
SIGNIFICANT WEATHER AND/OR OBSTRUCTIONS TO VISIBILITY.

KSZ001>006-013>018-027>032-041>047-230200-
NORTHWEST KANSAS

CITY           SKY/WX    TMP DP  RH WIND       PRES   REMARKS
GOODLAND       CLEAR     54  34  46 CALM      30.23F
HAYS           CLEAR     57  34  41 N7        30.22S
HILL CITY      CLEAR     60  31  33 E5        30.22F
RUSSELL        CLEAR     56  34  43 N7        30.19F
$$

KSZ061>065-074>080-084>089-230200-
SOUTHWEST KANSAS

CITY           SKY/WX    TMP DP  RH WIND       PRES   REMARKS
DODGE CITY     CLEAR     54  35  48 N8        30.23S
ELKHART          N/A     53  33  46 N8          N/A
GARDEN CITY    MOCLDY    54  33  45 N5        30.24S
GREAT BEND     PTCLDY    52  41  66 N6        30.21S
LIBERAL        CLEAR     55  30  38 N9        30.26R
PRATT          CLEAR     51  37  56 N8        30.21S
$$

KSZ066>073-081>083-090>101-230200-
SOUTHEAST KANSAS

CITY           SKY/WX    TMP DP  RH WIND       PRES   REMARKS
CHANUTE        CLOUDY    55  48  77 SE3       30.10R
COFFEYVILLE    CLOUDY    53  45  74 CALM      30.11S
HUTCHINSON     CLEAR     58  35  42 N7        30.17S
MEDICINE LODGE   N/A     57  35  43 N6        30.19S
NEWTON         CLEAR     54  41  61 N10       30.17R
PARSONS        CLOUDY    53  48  83 CALM      30.12R
WICHITA INTL   CLOUDY    60  36  40 N9G20     30.15R
WICHITA JABRA  CLOUDY    54  39  57 N8        30.15R
WICHITA MCCONL CLOUDY    58  36  43 N9        30.15R
WINFIELD       CLOUDY    55  45  68 N6        30.15R
$$

KSZ007>012-019>026-033>040-048>060-102>105-230200-
NORTHEAST KANSAS

CITY           SKY/WX    TMP DP  RH WIND       PRES   REMARKS
CONCORDIA      CLEAR     58  33  39 NE5       30.19S
EMPORIA        CLEAR     58  33  39 N10       30.14R
LAWRENCE       PTCLDY    60  30  32 N12       30.14R
MANHATTAN      CLEAR     59  30  33 NE10      30.16R
MARYSVILLE     CLEAR     59  32  36 NE8       30.17R
OLATHE IND     PTCLDY    58  31  35 N10       30.13R
OLATHE EXE     PTCLDY    59  29  31 NE10      30.12R
SALINA         CLEAR     60  35  39 N9        30.18S
TOPEKA BILLARD CLEAR     59  33  37 NE9       30.14S
TOPEKA FORBES  CLEAR     61  31  32 NE9       30.14R
$$



USA.gov is the U.S. government's official web portal to all federal, state and local government web resources and services.